Overview Statistics Trail Chart Weather Telemetry Raw packets
 

This is the latest recevied weather packets stored in our database for station/object N9BLE. If no packets are shown the sender has not sent any weather packets the latest 10 day(s).

<< 27 28 29 30 31 32 33 >>
Time Temp. Humidity Pressure Rain* Wind** Luminosity Snow
1777858121 15° C 64% 1009.5 hPa 0 mm - 0 W/m² -
1777857802 15° C 63% 1009.6 hPa 0 mm - 0 W/m² -
1777857499 15° C 63% 1009.6 hPa 0 mm - 0 W/m² -
1777857196 15.56° C 63% 1009.5 hPa 0 mm - 0 W/m² -
1777856891 15.56° C 63% 1009.4 hPa 0 mm - 0 W/m² -
1777856587 15.56° C 62% 1009.4 hPa 0 mm - 1 W/m² -
1777856284 16.11° C 62% 1009.4 hPa 0 mm - 2 W/m² -
1777855981 16.11° C 61% 1009.6 hPa 0 mm - 3 W/m² -
1777855679 16.67° C 60% 1009.5 hPa 0 mm - 5 W/m² -
1777855376 16.67° C 59% 1009.5 hPa 0 mm - 7 W/m² -
1777855072 17.22° C 57% 1009.5 hPa 0 mm - 9 W/m² -
1777854769 17.78° C 55% 1009.5 hPa 0 mm - 12 W/m² -
1777854466 17.78° C 53% 1009.6 hPa 0 mm - 14 W/m² -
1777854163 18.33° C 51% 1009.6 hPa 0 mm - 17 W/m² -
1777853861 18.33° C 49% 1009.6 hPa 0 mm - 20 W/m² -
1777853557 18.89° C 49% 1009.8 hPa 0 mm - 22 W/m² -
1777853254 18.89° C 48% 1009.5 hPa 0 mm - 24 W/m² -
1777852951 18.89° C 48% 1009.4 hPa 0 mm - 26 W/m² -
1777852649 19.44° C 46% 1009.5 hPa 0 mm - 29 W/m² -
1777852346 19.44° C 45% 1009.7 hPa 0 mm - 31 W/m² -
1777852066 19.44° C 44% 1009.6 hPa 0 mm - 34 W/m² -
1777851742 19.44° C 45% 1009.8 hPa 0 mm - 37 W/m² -
1777851438 19.44° C 47% 1009.5 hPa 0 mm - 39 W/m² -
1777851134 20° C 45% 1009.6 hPa 0 mm - 40 W/m² -
1777850831 19.44° C 46% 1009.7 hPa 0 mm - 42 W/m² -

* Rain latest hour (hover to see other rain measurements)
** Current wind speed in m/s (hover to see current wind gust speed)